Погода в Антоновке

Россия / Орловская область     52°29′57″N   35°48′13″E
темп.,
°C
ветер,
м/с
пор.,
м/с
влажн.,
%
обл.,
%
осадки,
мм/ч
давл.,
гПа
погр.,
м
2 августа, пн
пн200:00+21ююв346192 0.0 101146
03:00+21ю355927 0.0 101070
06:00+20ю34715 0.2 100953
09:00+27ю685126 0.2 1009471
12:00+30ююз8114458 0.0 10081746
15:00+32ююз8103752 0.0 10062761
18:00+30ю584458 0.0 1004670
21:00+17ююз2294100 21.4 100990
3 августа, вт
вт300:00+18ююз41096100 0.2 1008232
03:00+18юз51096100 0.2 1009351
06:00+17з489486 0.0 1010380
09:00+17з4587100 0.0 1012543
12:00+18зсз4676100 0.0 1013778
15:00+23зсз4555100 0.0 10121591
18:00+21сз5863100 0.0 1013491
21:00+19сз2269100 0.0 101437
4 августа, ср
ср400:00+18зсз2265100 0.0 101539
03:00+15зсз336914 0.0 101653
06:00+14зсз22750 0.0 101731
09:00+20зсз23530 0.0 1017421
12:00+23з45436 0.0 10171644
15:00+24зсз4541100 0.0 10172266
18:00+23зсз2350100 0.0 1017755
21:00+18сз225974 0.0 101811
5 августа, чт
чт500:00+16с226499 0.0 101811
03:00+16юв1167100 0.0 101811
06:00+16юв2268100 0.0 101813
09:00+16св3576100 0.1 1018126
12:00+18в4769100 0.1 1017307
15:00+20вюв246180 0.1 1016134
18:00+23юв23568 0.0 1015271
21:00+18юв22695 0.0 101512
6 августа, пт
пт600:00+17ссз117076 0.0 101411
03:00+18ю336599 0.0 101434
06:00+18ююв3366100 0.0 101452
09:00+21юв235873 0.0 1013253
12:00+27ю344334 0.0 1013911
15:00+29ю45365 0.0 10121912
18:00+29юв354498 0.0 1011202
21:00+23вюв48486 0.0 1011109